Home   Weather   Bodrum   Past weeks

Flag for Turkey Past Weather in Bodrum, Turkey — Yesterday and Last 2 Weeks

Now
56 °F

Passing clouds.


Feels Like: 54 °F
Forecast: 53 / 61 °F
Wind: 6 mph from Southeast

Location: Bodrum

Current Time: Feb 20, 2017 at 4:47:19 am

Latest Report: Feb 20, 2017 at 3:00 am


Visibility: 13 mi

Pressure: 30.27 "Hg

Humidity: 70%

Dew Point: 46 °F

Location of BodrumLocation

Past Weather in Bodrum — Graph

°F

Bodrum Temperature Yesterday

Maximum temperature yesterday: 64 °F (at 5:00 pm)
Minimum temperature yesterday: 53 °F (at 6:00 am)
Average temperature yesterday: 58 °F

High & Low Weather Summary for the Past Weeks

 TemperatureHumidityPressure
High67 °F (Feb 6, 3:00 pm)97% (Feb 8, 9:00 am)30.36 "Hg (Feb 8, 9:00 am)
Low38 °F (Feb 15, 6:00 am)9% (Feb 11, 10:00 am)29.87 "Hg (Feb 8, 3:00 pm)
Average55 °F52%30.15 "Hg
* Reported Feb 5 9:00 am — Feb 20 3:00 am, Bodrum, Weather by CustomWeather, © 2017

Note: Actual official high and low records may vary slightly from our data, if they occured in-between our weather recording intervals... More about our weather records

Advertising

Bodrum Weather History for the Previous 24 Hours

Scroll right to see more
 ConditionsComfort  
Time TempWeatherWind HumidityBarometerVisibility
3:00 am
Mon, Feb 20
56 °FPassing clouds.6 mph70%30.27 "Hg12 mi
12:00 am57 °FPassing clouds.5 mph66%30.28 "Hg12 mi
9:00 pm
Sun, Feb 19
56 °FPassing clouds.3 mph65%30.29 "Hg12 mi
8:00 pm58 °FPassing clouds.5 mph62%30.29 "Hg12 mi
7:00 pm58 °FPassing clouds.3 mph59%30.29 "Hg12 mi
6:00 pm59 °FPartly sunny.3 mph59%30.30 "Hg12 mi
5:00 pm64 °FScattered clouds.9 mph48%30.30 "Hg12 mi
4:00 pm64 °FSunny.8 mph47%30.31 "Hg12 mi
3:00 pm62 °FScattered clouds.9 mph49%30.32 "Hg12 mi
2:00 pm61 °FPartly sunny.9 mph49%30.34 "Hg12 mi
1:00 pm60 °FScattered clouds.9 mph51%30.35 "Hg12 mi
12:00 pm60 °FScattered clouds.3 mph55%30.36 "Hg12 mi
11:00 am57 °FPartly sunny.7 mph59%30.36 "Hg12 mi
10:00 am56 °FPartly sunny.6 mph61%30.36 "Hg12 mi
9:00 am54 °FPartly sunny.6 mph62%30.34 "Hg12 mi
6:00 am53 °FPassing clouds.3 mph60%30.31 "Hg12 mi
Weather by CustomWeather, © 2017

See weather overviewHow to use our weather pages